Погода в Аръаре

Саудовская Аравия     30°58′18″N   41°01′27″E
темп.,
°C
ветер,
м/с
пор.,
м/с
влажн.,
%
обл.,
%
осадки,
мм/ч
давл.,
гПа
погр.,
м
12 августа, пт
пт1200:00+33сз610240 0.0 1004168
03:00+31сз59260 0.0 1004148
06:00+29ссз59250 0.0 1005165
09:00+34ссз56200 0.0 1005626
12:00+39сз56130 0.0 10041529
15:00+42сз67110 0.0 10012079
18:00+40сз67120 0.0 10012078
21:00+35сз56160 0.0 100373
13 августа, сб
сб1300:00+32ссз45160 0.0 100350
03:00+30сз44200 0.0 100235
06:00+28сз46230 0.0 100368
09:00+34сз56160 0.0 1003637
12:00+39сз56130 0.0 10011613
15:00+41зсз78100 0.0 9992087
18:00+39зсз77100 0.0 9991202
21:00+34зсз56120 0.0 100152
14 августа, вс
вс1400:00+31зсз59150 0.0 1001103
03:00+29зсз712240 0.0 1001160
06:00+27сз510290 0.0 1003162
09:00+32ссз66210 0.0 1004585
12:00+37сз33130 0.0 10031470
15:00+40сз34100 0.0 10011997
18:00+40сз44110 0.0 1001652
21:00+35сз45160 0.0 100244
15 августа, пн
пн1500:00+33ссз45170 0.0 100248
03:00+30сз46200 0.0 100369
06:00+29ссз45210 0.0 100454
09:00+34ссв44130 0.0 1005567
12:00+39св32120 0.0 10051454
15:00+41ссв33110 0.0 10032071
18:00+40св44120 0.0 1003369
21:00+35всв44180 0.0 100424
16 августа, вт
вт1600:00+33св33200 0.0 100520
03:00+31ссв33220 0.0 100512
06:00+29с44270 0.0 100640
09:00+34св45170 0.0 1007569
12:00+38св33130 0.0 10051215
15:00+42с34110 0.0 10032226
18:00+41с34120 0.0 1003219
21:00+36всв33170 0.0 100413